Location: Amsterdam
(30.7274°N, 84.4357°W)
Time: 14:57:00
(UTC+00:00)

Vanguard 1 Rocket - Pass Details

Date: 23 February 2026
Orbit: 653 x 4214 km, 34.3° (Epoch: 6 March)

Event Time Altitude Azimuth Distance (km) Brightness Sun altitude
Rises 02:06:36 0° 281° (WNW) 7,145 13.0 -34.0°
Reaches altitude 10° 02:12:16 10° 270° (W) 6,577 12.5 -35.2°
Maximum altitude 02:29:08 26° 224° (SW) 6,034 11.7 -38.8°
Drops below altitude 10° 02:47:53 10° 176° (S) 7,149 11.7 -42.7°
Sets 02:54:48 0° 165° (SSE) 7,825 11.9 -44.1°
